Regional Weather Roundup
Issued by NWS Sioux Falls, SD

Home | Current Version | Previous Version | Graphics & Text | Print | Product List | Glossary On
Versions: 1 2 3 4 5 6 7 8 9 10 11 12 13 14 15 16 17 18 19 20 21 22 23 24 25 26 27 28 29 30 31 32 33 34 35 36 37 38 39 40 41 42 43 44 45 46 47 48 49 50
000
ASUS43 KFSD 020202
RWRFSD

WEATHER ROUNDUP FOR SE SOUTH DAKOTA/SW MINNESOTA/NW IOWA
NATIONAL WEATHER SERVICE SIOUX FALLS SD
900 PM CDT FRI AUG 01 2014

NOTE: "FAIR" INDICATES FEW OR NO CLOUDS BELOW 12,000 FEET WITH NO
SIGNIFICANT WEATHER AND OR OBSTRUCTIONS TO VISIBILITY.


SDZ038>040-050-052>070-020300-
SOUTHEAST SOUTH DAKOTA

CITY           SKY/WX    TMP DP  RH WIND       PRES   REMARKS
CHAMBERLAIN    PTCLDY    77  54  44 SE13      30.04R
HURON          CLEAR     74  59  59 SE5       30.03F
MADISON        FAIR      72  59  64 S5        30.08F
MITCHELL       CLEAR     73  60  63 S7        30.06S
SIOUX FALLS    PTCLDY    73  57  57 SE5       30.08S
WINNER         FAIR      83  56  39 SW9       30.07R
YANKTON        CLEAR     73  61  64 E5        30.07S
$$

MNZ071-072-080-081-089-090-097-098-020300-
SOUTHWEST MINNESOTA

CITY           SKY/WX    TMP DP  RH WIND       PRES   REMARKS
FAIRMONT       CLEAR     72  52  49 CALM      30.09R
JACKSON        CLEAR     68  63  83 CALM      30.11R
LUVERNE        CLEAR     72  63  73 W3        30.09S
MARSHALL       PTCLDY    75  61  60 CALM      30.06F
MONTEVIDEO     PTCLDY    73  63  68 CALM      30.07S
PIPESTONE      PTCLDY    75  61  60 CALM      30.10S
REDWOOD FALLS  PTCLDY    74  64  71 E3        30.06S
TRACY          PTCLDY    72  62  72 CALM      30.08F
WINDOM         CLEAR     72  63  73 CALM      30.10R
WORTHINGTON    CLEAR     72  61  68 E3        30.11S
$$

IAZ001>003-012>014-020>022-031-032-NEZ013-014-SDZ071-020300-
NORTHWEST IOWA

CITY           SKY/WX    TMP DP  RH WIND       PRES   REMARKS
CHEROKEE       CLEAR     71  62  73 CALM      30.08S
DENISON        CLEAR     70  66  88 CALM      30.07R
ESTHERVILLE    CLEAR     69  62  78 CALM      30.09R
SIOUX CITY     CLEAR     73  62  68 E3        30.07S
SPENCER        CLEAR     73  62  68 CALM      30.09R
STORM LAKE     CLEAR     70  64  83 NW3       30.10R
$$

ABBREVIATIONS USED IN REMARKS
   TC - TEMPERATURE IN CELSIUS
  WCI - WIND CHILL INDEX
   HX - HEAT INDEX
  VSB - VISIBILITY



USA.gov is the U.S. government's official web portal to all federal, state and local government web resources and services.